owner,sensor,date,latitude,longitude,vertical_datum,direction_of_sea_water_velocity,sea_water_speed,upward_sea_water_velocity,qcFlag 
TABS,ioos:station:wmo:42051:1,1998-09-01T00:00:00Z,29.6350,-93.6417,2.0,291.4507808,14.24681368,-99999.0,'11111222,11111222,99999999' 
TABS,ioos:station:wmo:42051:1,1998-09-01T00:30:00Z,29.6350,-93.6417,2.0,276.6674758,18.00173603,-99999.0,'11111222,11111222,99999999' 
TABS,ioos:station:wmo:42051:1,1998-09-01T01:00:00Z,29.6350,-93.6417,2.0,259.1283405,19.72397779,-99999.0,'11111222,11111222,99999999' 
TABS,ioos:station:wmo:42051:1,1998-09-01T01:30:00Z,29.6350,-93.6417,2.0,270.0004209,17.13,-99999.0,'11111222,11111222,99999999' 
TABS,ioos:station:wmo:42051:1,1998-09-01T02:00:00Z,29.6350,-93.6417,2.0,274.1454367,20.61392005,-99999.0,'11111222,11111222,99999999' 
TABS,ioos:station:wmo:42051:1,1998-09-01T02:30:00Z,29.6350,-93.6417,2.0,280.6604276,20.92105399,-99999.0,'11111222,11111222,99999999' 
TABS,ioos:station:wmo:42051:1,1998-09-01T03:00:00Z,29.6350,-93.6417,2.0,276.5720187,16.95137753,-99999.0,'11111222,11111222,99999999' 
TABS,ioos:station:wmo:42051:1,1998-09-01T03:30:00Z,29.6350,-93.6417,2.0,275.0123487,17.05521035,-99999.0,'11111222,11111222,99999999' 
TABS,ioos:station:wmo:42051:1,1998-09-01T04:00:00Z,29.6350,-93.6417,2.0,274.3966022,17.48143301,-99999.0,'11111222,11111222,99999999' 
TABS,ioos:station:wmo:42051:1,1998-09-01T04:30:00Z,29.6350,-93.6417,2.0,281.1097273,16.24439903,-99999.0,'11111222,11111222,99999999' 
TABS,ioos:station:wmo:42051:1,1998-09-01T05:00:00Z,29.6350,-93.6417,2.0,271.5052144,17.13590966,-99999.0,'11111222,11111222,99999999' 
TABS,ioos:station:wmo:42051:1,1998-09-01T05:30:00Z,29.6350,-93.6417,2.0,261.7406797,17.61266022,-99999.0,'11111222,11111222,99999999' 
TABS,ioos:station:wmo:42051:1,1998-09-01T06:00:00Z,29.6350,-93.6417,2.0,260.0144322,18.91653509,-99999.0,'11111222,11111222,99999999' 
TABS,ioos:station:wmo:42051:1,1998-09-01T06:30:00Z,29.6350,-93.6417,2.0,258.5811587,16.56792081,-99999.0,'11111222,11111222,99999999' 
TABS,ioos:station:wmo:42051:1,1998-09-01T07:00:00Z,29.6350,-93.6417,2.0,248.7162929,18.07260911,-99999.0,'11111222,11111222,99999999' 
TABS,ioos:station:wmo:42051:1,1998-09-01T07:30:00Z,29.6350,-93.6417,2.0,251.1437333,19.36947341,-99999.0,'11111222,11111222,99999999' 
TABS,ioos:station:wmo:42051:1,1998-09-01T08:00:00Z,29.6350,-93.6417,2.0,261.7524864,20.77484055,-99999.0,'11111222,11111222,99999999' 
TABS,ioos:station:wmo:42051:1,1998-09-01T08:30:00Z,29.6350,-93.6417,2.0,250.241188,20.26295635,-99999.0,'11111222,11111222,99999999' 
TABS,ioos:station:wmo:42051:1,1998-09-01T09:00:00Z,29.6350,-93.6417,2.0,254.0009684,22.16863099,-99999.0,'11111222,11111222,99999999' 
TABS,ioos:station:wmo:42051:1,1998-09-01T09:30:00Z,29.6350,-93.6417,2.0,255.0752903,20.8120566,-99999.0,'11111222,11111222,99999999' 
TABS,ioos:station:wmo:42051:1,1998-09-01T10:00:00Z,29.6350,-93.6417,2.0,262.6703241,19.83203973,-99999.0,'11111222,11111222,99999999' 
TABS,ioos:station:wmo:42051:1,1998-09-01T10:30:00Z,29.6350,-93.6417,2.0,250.4104104,20.87843145,-99999.0,'11111222,11111222,99999999' 
TABS,ioos:station:wmo:42051:1,1998-09-01T11:00:00Z,29.6350,-93.6417,2.0,256.0694714,22.26480856,-99999.0,'11111222,11111222,99999999' 
TABS,ioos:station:wmo:42051:1,1998-09-01T11:30:00Z,29.6350,-93.6417,2.0,246.1621416,19.54749089,-99999.0,'11111222,11111222,99999999' 
TABS,ioos:station:wmo:42051:1,1998-09-01T12:00:00Z,29.6350,-93.6417,2.0,252.772675,15.59982051,-99999.0,'11111222,11111222,99999999' 
TABS,ioos:station:wmo:42051:1,1998-09-01T12:30:00Z,29.6350,-93.6417,2.0,251.3243198,21.86101782,-99999.0,'11111222,11111222,99999999' 
TABS,ioos:station:wmo:42051:1,1998-09-01T13:00:00Z,29.6350,-93.6417,2.0,260.5449769,24.47243347,-99999.0,'11111222,11111222,99999999' 
TABS,ioos:station:wmo:42051:1,1998-09-01T13:30:00Z,29.6350,-93.6417,2.0,262.4049535,22.54779147,-99999.0,'11111222,11111222,99999999' 
TABS,ioos:station:wmo:42051:1,1998-09-01T14:00:00Z,29.6350,-93.6417,2.0,259.5628222,21.3634501,-99999.0,'11111222,11111222,99999999' 
TABS,ioos:station:wmo:42051:1,1998-09-01T14:30:00Z,29.6350,-93.6417,2.0,261.4255509,18.98214424,-99999.0,'11111222,11111222,99999999' 
TABS,ioos:station:wmo:42051:1,1998-09-01T15:00:00Z,29.6350,-93.6417,2.0,263.2500876,20.25034568,-99999.0,'11111222,11111222,99999999' 
TABS,ioos:station:wmo:42051:1,1998-09-01T15:30:00Z,29.6350,-93.6417,2.0,262.9333229,20.56621015,-99999.0,'11111222,11111222,99999999' 
TABS,ioos:station:wmo:42051:1,1998-09-01T16:00:00Z,29.6350,-93.6417,2.0,274.8311536,24.81815867,-99999.0,'11111222,11111222,99999999' 
TABS,ioos:station:wmo:42051:1,1998-09-01T16:30:00Z,29.6350,-93.6417,2.0,269.6861487,27.42041028,-99999.0,'11111222,11111222,99999999' 
TABS,ioos:station:wmo:42051:1,1998-09-01T17:00:00Z,29.6350,-93.6417,2.0,260.9324609,28.36443195,-99999.0,'11111222,11111222,99999999' 
TABS,ioos:station:wmo:42051:1,1998-09-01T17:30:00Z,29.6350,-93.6417,2.0,261.6400084,31.77763364,-99999.0,'11111222,11111222,99999999' 
TABS,ioos:station:wmo:42051:1,1998-09-01T18:00:00Z,29.6350,-93.6417,2.0,260.8031099,32.59902606,-99999.0,'11111222,11111222,99999999' 
TABS,ioos:station:wmo:42051:1,1998-09-01T18:30:00Z,29.6350,-93.6417,2.0,260.414883,33.09194766,-99999.0,'11111222,11111222,99999999' 
TABS,ioos:station:wmo:42051:1,1998-09-01T19:00:00Z,29.6350,-93.6417,2.0,260.3246363,31.89362319,-99999.0,'11111222,11111222,99999999' 
TABS,ioos:station:wmo:42051:1,1998-09-01T19:30:00Z,29.6350,-93.6417,2.0,256.8299032,33.35731404,-99999.0,'11111222,11111222,99999999' 
TABS,ioos:station:wmo:42051:1,1998-09-01T20:00:00Z,29.6350,-93.6417,2.0,256.2533074,34.50841057,-99999.0,'11111222,11111222,99999999' 
TABS,ioos:station:wmo:42051:1,1998-09-01T20:30:00Z,29.6350,-93.6417,2.0,255.9590183,31.94436727,-99999.0,'11111222,11111222,99999999' 
TABS,ioos:station:wmo:42051:1,1998-09-01T21:00:00Z,29.6350,-93.6417,2.0,255.4557791,28.47237433,-99999.0,'11111222,11111222,99999999' 
TABS,ioos:station:wmo:42051:1,1998-09-01T21:30:00Z,29.6350,-93.6417,2.0,253.1372457,29.26841642,-99999.0,'11111222,11111222,99999999' 
TABS,ioos:station:wmo:42051:1,1998-09-01T22:00:00Z,29.6350,-93.6417,2.0,255.2560507,29.27385523,-99999.0,'11111222,11111222,99999999' 
TABS,ioos:station:wmo:42051:1,1998-09-01T22:30:00Z,29.6350,-93.6417,2.0,257.6451174,30.66000815,-99999.0,'11111222,11111222,99999999' 
TABS,ioos:station:wmo:42051:1,1998-09-01T23:00:00Z,29.6350,-93.6417,2.0,253.1199789,32.85552008,-99999.0,'11111222,11111222,99999999' 
TABS,ioos:station:wmo:42051:1,1998-09-01T23:30:00Z,29.6350,-93.6417,2.0,256.3014584,30.82681463,-99999.0,'11111222,11111222,99999999' 
TABS,ioos:station:wmo:42051:1,1998-09-02T00:00:00Z,29.6350,-93.6417,2.0,262.5008272,30.80344137,-99999.0,'11111222,11111222,99999999' 
TABS,ioos:station:wmo:42051:1,1998-09-02T00:30:00Z,29.6350,-93.6417,2.0,268.3465643,30.85283942,-99999.0,'11111222,11111222,99999999' 
TABS,ioos:station:wmo:42051:1,1998-09-02T01:00:00Z,29.6350,-93.6417,2.0,268.0681621,30.85753069,-99999.0,'11111222,11111222,99999999' 
TABS,ioos:station:wmo:42051:1,1998-09-02T01:30:00Z,29.6350,-93.6417,2.0,263.2684492,26.70406898,-99999.0,'11111222,11111222,99999999' 
TABS,ioos:station:wmo:42051:1,1998-09-02T02:00:00Z,29.6350,-93.6417,2.0,259.5502494,31.20755838,-99999.0,'11111222,11111222,99999999' 
TABS,ioos:station:wmo:42051:1,1998-09-02T02:30:00Z,29.6350,-93.6417,2.0,253.2322364,27.38427286,-99999.0,'11111222,11111222,99999999' 
TABS,ioos:station:wmo:42051:1,1998-09-02T03:00:00Z,29.6350,-93.6417,2.0,259.353015,27.44240879,-99999.0,'11111222,11111222,99999999' 
TABS,ioos:station:wmo:42051:1,1998-09-02T03:30:00Z,29.6350,-93.6417,2.0,262.7447154,30.64534059,-99999.0,'11111222,11111222,99999999' 
TABS,ioos:station:wmo:42051:1,1998-09-02T04:00:00Z,29.6350,-93.6417,2.0,259.7723707,31.03307429,-99999.0,'11111222,11111222,99999999' 
TABS,ioos:station:wmo:42051:1,1998-09-02T04:30:00Z,29.6350,-93.6417,2.0,262.1719239,40.45697097,-99999.0,'11111222,11111222,99999999' 
TABS,ioos:station:wmo:42051:1,1998-09-02T05:00:00Z,29.6350,-93.6417,2.0,259.6771459,40.73937162,-99999.0,'11111222,11111222,99999999' 
TABS,ioos:station:wmo:42051:1,1998-09-02T05:30:00Z,29.6350,-93.6417,2.0,260.0101138,39.4886642,-99999.0,'11111222,11111222,99999999' 
TABS,ioos:station:wmo:42051:1,1998-09-02T06:00:00Z,29.6350,-93.6417,2.0,260.6005917,40.16927308,-99999.0,'11111222,11111222,99999999' 
TABS,ioos:station:wmo:42051:1,1998-09-02T06:30:00Z,29.6350,-93.6417,2.0,249.3280043,32.49185898,-99999.0,'11111222,11111222,99999999' 
TABS,ioos:station:wmo:42051:1,1998-09-02T07:00:00Z,29.6350,-93.6417,2.0,256.2014971,35.59726113,-99999.0,'11111222,11111222,99999999' 
TABS,ioos:station:wmo:42051:1,1998-09-02T07:30:00Z,29.6350,-93.6417,2.0,257.3326582,33.29024482,-99999.0,'11111222,11111222,99999999' 
TABS,ioos:station:wmo:42051:1,1998-09-02T08:00:00Z,29.6350,-93.6417,2.0,256.7160148,30.46510299,-99999.0,'11111222,11111222,99999999' 
TABS,ioos:station:wmo:42051:1,1998-09-02T08:30:00Z,29.6350,-93.6417,2.0,253.195706,29.88614562,-99999.0,'11111222,11111222,99999999' 
TABS,ioos:station:wmo:42051:1,1998-09-02T09:00:00Z,29.6350,-93.6417,2.0,252.8397659,27.2845634,-99999.0,'11111222,11111222,99999999' 
TABS,ioos:station:wmo:42051:1,1998-09-02T09:30:00Z,29.6350,-93.6417,2.0,253.6926118,25.46440849,-99999.0,'11111222,11111222,99999999' 
TABS,ioos:station:wmo:42051:1,1998-09-02T10:00:00Z,29.6350,-93.6417,2.0,253.2632516,20.69671472,-99999.0,'11111222,11111222,99999999' 
TABS,ioos:station:wmo:42051:1,1998-09-02T10:30:00Z,29.6350,-93.6417,2.0,258.6951522,20.50786435,-99999.0,'11111222,11111222,99999999' 
TABS,ioos:station:wmo:42051:1,1998-09-02T11:00:00Z,29.6350,-93.6417,2.0,258.1182335,20.25392061,-99999.0,'11111222,11111222,99999999' 
TABS,ioos:station:wmo:42051:1,1998-09-02T11:30:00Z,29.6350,-93.6417,2.0,254.9971061,21.28552795,-99999.0,'11111222,11111222,99999999' 
TABS,ioos:station:wmo:42051:1,1998-09-02T12:00:00Z,29.6350,-93.6417,2.0,254.182291,19.66458746,-99999.0,'11111222,11111222,99999999' 
TABS,ioos:station:wmo:42051:1,1998-09-02T12:30:00Z,29.6350,-93.6417,2.0,251.8487817,19.13201505,-99999.0,'11111222,11111222,99999999' 
TABS,ioos:station:wmo:42051:1,1998-09-02T13:00:00Z,29.6350,-93.6417,2.0,252.4429275,21.24984,-99999.0,'11111222,11111222,99999999' 
TABS,ioos:station:wmo:42051:1,1998-09-02T13:30:00Z,29.6350,-93.6417,2.0,246.9114389,19.76296789,-99999.0,'11111222,11111222,99999999' 
TABS,ioos:station:wmo:42051:1,1998-09-02T14:00:00Z,29.6350,-93.6417,2.0,251.8487817,19.13201505,-99999.0,'11111222,11111222,99999999' 
TABS,ioos:station:wmo:42051:1,1998-09-02T14:30:00Z,29.6350,-93.6417,2.0,251.1331662,18.89514488,-99999.0,'11111222,11111222,99999999' 
TABS,ioos:station:wmo:42051:1,1998-09-02T15:00:00Z,29.6350,-93.6417,2.0,244.9787332,17.25976825,-99999.0,'11111222,11111222,99999999' 
TABS,ioos:station:wmo:42051:1,1998-09-02T15:30:00Z,29.6350,-93.6417,2.0,238.9536288,17.91647566,-99999.0,'11111222,11111222,99999999' 
TABS,ioos:station:wmo:42051:1,1998-09-02T16:00:00Z,29.6350,-93.6417,2.0,240.3592291,21.08966097,-99999.0,'11111222,11111222,99999999' 
TABS,ioos:station:wmo:42051:1,1998-09-02T16:30:00Z,29.6350,-93.6417,2.0,236.6354182,21.94706814,-99999.0,'11111222,11111222,99999999' 
TABS,ioos:station:wmo:42051:1,1998-09-02T17:00:00Z,29.6350,-93.6417,2.0,239.7239601,25.70606154,-99999.0,'11111222,11111222,99999999' 
TABS,ioos:station:wmo:42051:1,1998-09-02T17:30:00Z,29.6350,-93.6417,2.0,239.4873879,26.1166154,-99999.0,'11111222,11111222,99999999' 
TABS,ioos:station:wmo:42051:1,1998-09-02T18:00:00Z,29.6350,-93.6417,2.0,234.4221718,25.09438383,-99999.0,'11111222,11111222,99999999' 
TABS,ioos:station:wmo:42051:1,1998-09-02T18:30:00Z,29.6350,-93.6417,2.0,233.5628798,24.0766879,-99999.0,'11111222,11111222,99999999' 
TABS,ioos:station:wmo:42051:1,1998-09-02T19:00:00Z,29.6350,-93.6417,2.0,229.0741358,20.69983575,-99999.0,'11111222,11111222,99999999' 
TABS,ioos:station:wmo:42051:1,1998-09-02T19:30:00Z,29.6350,-93.6417,2.0,234.3389948,22.7450654,-99999.0,'11111222,11111222,99999999' 
TABS,ioos:station:wmo:42051:1,1998-09-02T20:00:00Z,29.6350,-93.6417,2.0,233.7297001,22.92125651,-99999.0,'11111222,11111222,99999999' 
TABS,ioos:station:wmo:42051:1,1998-09-02T20:30:00Z,29.6350,-93.6417,2.0,239.295921,23.05136222,-99999.0,'11111222,11111222,99999999' 
TABS,ioos:station:wmo:42051:1,1998-09-02T21:00:00Z,29.6350,-93.6417,2.0,248.4435966,25.14895028,-99999.0,'11111222,11111222,99999999' 
TABS,ioos:station:wmo:42051:1,1998-09-02T21:30:00Z,29.6350,-93.6417,2.0,251.9418287,22.09847506,-99999.0,'11111222,11111222,99999999' 
TABS,ioos:station:wmo:42051:1,1998-09-02T22:00:00Z,29.6350,-93.6417,2.0,252.0898168,20.35643633,-99999.0,'11111222,11111222,99999999' 
TABS,ioos:station:wmo:42051:1,1998-09-02T22:30:00Z,29.6350,-93.6417,2.0,245.0545922,21.19745268,-99999.0,'11111222,11111222,99999999' 
TABS,ioos:station:wmo:42051:1,1998-09-02T23:00:00Z,29.6350,-93.6417,2.0,242.4255734,22.85615891,-99999.0,'11111222,11111222,99999999' 
TABS,ioos:station:wmo:42051:1,1998-09-02T23:30:00Z,29.6350,-93.6417,2.0,244.3421881,25.1276123,-99999.0,'11111222,11111222,99999999' 
TABS,ioos:station:wmo:42051:1,1998-09-03T00:00:00Z,29.6350,-93.6417,2.0,245.2166799,25.59747058,-99999.0,'11111222,11111222,99999999' 
TABS,ioos:station:wmo:42051:1,1998-09-03T00:30:00Z,29.6350,-93.6417,2.0,247.3470035,28.24923539,-99999.0,'11111222,11111222,99999999' 
TABS,ioos:station:wmo:42051:1,1998-09-03T01:00:00Z,29.6350,-93.6417,2.0,256.3161033,28.36507888,-99999.0,'11111222,11111222,99999999' 
TABS,ioos:station:wmo:42051:1,1998-09-03T01:30:00Z,29.6350,-93.6417,2.0,256.1723909,29.91696843,-99999.0,'11111222,11111222,99999999' 
TABS,ioos:station:wmo:42051:1,1998-09-03T02:00:00Z,29.6350,-93.6417,2.0,260.3413478,29.32566282,-99999.0,'11111222,11111222,99999999' 
TABS,ioos:station:wmo:42051:1,1998-09-03T02:30:00Z,29.6350,-93.6417,2.0,266.6298118,30.45265341,-99999.0,'11111222,11111222,99999999' 
TABS,ioos:station:wmo:42051:1,1998-09-03T03:00:00Z,29.6350,-93.6417,2.0,266.2179063,29.41404596,-99999.0,'11111222,11111222,99999999' 
TABS,ioos:station:wmo:42051:1,1998-09-03T03:30:00Z,29.6350,-93.6417,2.0,269.7067589,29.3503833,-99999.0,'11111222,11111222,99999999' 
TABS,ioos:station:wmo:42051:1,1998-09-03T04:00:00Z,29.6350,-93.6417,2.0,271.9694791,30.26787241,-99999.0,'11111222,11111222,99999999' 
TABS,ioos:station:wmo:42051:1,1998-09-03T04:30:00Z,29.6350,-93.6417,2.0,272.149808,27.72950955,-99999.0,'11111222,11111222,99999999' 
TABS,ioos:station:wmo:42051:1,1998-09-03T05:00:00Z,29.6350,-93.6417,2.0,273.5106586,24.33565697,-99999.0,'11111222,11111222,99999999' 
TABS,ioos:station:wmo:42051:1,1998-09-03T05:30:00Z,29.6350,-93.6417,2.0,278.2944297,22.73781872,-99999.0,'11111222,11111222,99999999' 
TABS,ioos:station:wmo:42051:1,1998-09-03T06:00:00Z,29.6350,-93.6417,2.0,280.9544579,19.57669022,-99999.0,'11111222,11111222,99999999' 
TABS,ioos:station:wmo:42051:1,1998-09-03T06:30:00Z,29.6350,-93.6417,2.0,282.6758289,16.95317079,-99999.0,'11111222,11111222,99999999' 
TABS,ioos:station:wmo:42051:1,1998-09-03T07:00:00Z,29.6350,-93.6417,2.0,288.9864597,15.1227114,-99999.0,'11111222,11111222,99999999' 
TABS,ioos:station:wmo:42051:1,1998-09-03T07:30:00Z,29.6350,-93.6417,2.0,285.7902478,13.15644329,-99999.0,'11111222,11111222,99999999' 
TABS,ioos:station:wmo:42051:1,1998-09-03T08:00:00Z,29.6350,-93.6417,2.0,282.949796,13.29819537,-99999.0,'11111222,11111222,99999999' 
TABS,ioos:station:wmo:42051:1,1998-09-03T08:30:00Z,29.6350,-93.6417,2.0,278.2321664,13.54960147,-99999.0,'11111222,11111222,99999999' 
TABS,ioos:station:wmo:42051:1,1998-09-03T09:00:00Z,29.6350,-93.6417,2.0,280.7287605,11.97939064,-99999.0,'11111222,11111222,99999999' 
TABS,ioos:station:wmo:42051:1,1998-09-03T09:30:00Z,29.6350,-93.6417,2.0,277.1254206,12.01276404,-99999.0,'11111222,11111222,99999999' 
TABS,ioos:station:wmo:42051:1,1998-09-03T10:00:00Z,29.6350,-93.6417,2.0,267.8100728,11.77859924,-99999.0,'11111222,11111222,99999999' 
TABS,ioos:station:wmo:42051:1,1998-09-03T10:30:00Z,29.6350,-93.6417,2.0,265.3864433,11.06584836,-99999.0,'11111222,11111222,99999999' 
TABS,ioos:station:wmo:42051:1,1998-09-03T11:00:00Z,29.6350,-93.6417,2.0,262.7812858,10.66452062,-99999.0,'11111222,11111222,99999999' 
TABS,ioos:station:wmo:42051:1,1998-09-03T11:30:00Z,29.6350,-93.6417,2.0,255.7824735,11.52292498,-99999.0,'11111222,11111222,99999999' 
TABS,ioos:station:wmo:42051:1,1998-09-03T12:00:00Z,29.6350,-93.6417,2.0,265.8340105,12.25236712,-99999.0,'11111222,11111222,99999999' 
TABS,ioos:station:wmo:42051:1,1998-09-03T12:30:00Z,29.6350,-93.6417,2.0,263.0728556,11.11109806,-99999.0,'11111222,11111222,99999999' 
TABS,ioos:station:wmo:42051:1,1998-09-03T13:00:00Z,29.6350,-93.6417,2.0,269.2097075,10.88103396,-99999.0,'11111222,11111222,99999999' 
TABS,ioos:station:wmo:42051:1,1998-09-03T13:30:00Z,29.6350,-93.6417,2.0,270.0004209,11.03,-99999.0,'11111222,11111222,99999999' 
TABS,ioos:station:wmo:42051:1,1998-09-03T14:00:00Z,29.6350,-93.6417,2.0,267.7528638,11.47882398,-99999.0,'11111222,11111222,99999999' 
TABS,ioos:station:wmo:42051:1,1998-09-03T14:30:00Z,29.6350,-93.6417,2.0,259.5389414,11.51132052,-99999.0,'11111222,11111222,99999999' 
TABS,ioos:station:wmo:42051:1,1998-09-03T15:00:00Z,29.6350,-93.6417,2.0,259.5319261,12.27427391,-99999.0,'11111222,11111222,99999999' 
TABS,ioos:station:wmo:42051:1,1998-09-03T15:30:00Z,29.6350,-93.6417,2.0,261.387926,12.95606808,-99999.0,'11111222,11111222,99999999' 
TABS,ioos:station:wmo:42051:1,1998-09-03T16:00:00Z,29.6350,-93.6417,2.0,260.0002243,15.43445496,-99999.0,'11111222,11111222,99999999' 
TABS,ioos:station:wmo:42051:1,1998-09-03T16:30:00Z,29.6350,-93.6417,2.0,265.4786318,15.09697321,-99999.0,'11111222,11111222,99999999' 
TABS,ioos:station:wmo:42051:1,1998-09-03T17:00:00Z,29.6350,-93.6417,2.0,257.4050686,24.581491,-99999.0,'11111222,11111222,99999999' 
TABS,ioos:station:wmo:42051:1,1998-09-03T17:30:00Z,29.6350,-93.6417,2.0,261.9743069,22.41956512,-99999.0,'11111222,11111222,99999999' 
TABS,ioos:station:wmo:42051:1,1998-09-03T18:00:00Z,29.6350,-93.6417,2.0,259.5980903,22.26590218,-99999.0,'11111222,11111222,99999999' 
TABS,ioos:station:wmo:42051:1,1998-09-03T18:30:00Z,29.6350,-93.6417,2.0,260.6116245,22.80544672,-99999.0,'11111222,11111222,99999999' 
TABS,ioos:station:wmo:42051:1,1998-09-03T19:00:00Z,29.6350,-93.6417,2.0,254.8591609,24.54188664,-99999.0,'11111222,11111222,99999999' 
TABS,ioos:station:wmo:42051:1,1998-09-03T19:30:00Z,29.6350,-93.6417,2.0,251.8845138,24.92546088,-99999.0,'11111222,11111222,99999999' 
TABS,ioos:station:wmo:42051:1,1998-09-03T20:00:00Z,29.6350,-93.6417,2.0,250.4112256,23.56374334,-99999.0,'11111222,11111222,99999999' 
TABS,ioos:station:wmo:42051:1,1998-09-03T20:30:00Z,29.6350,-93.6417,2.0,249.8478792,22.06046464,-99999.0,'11111222,11111222,99999999' 
TABS,ioos:station:wmo:42051:1,1998-09-03T21:00:00Z,29.6350,-93.6417,2.0,250.4104104,20.87843145,-99999.0,'11111222,11111222,99999999' 
TABS,ioos:station:wmo:42051:1,1998-09-03T21:30:00Z,29.6350,-93.6417,2.0,252.2948247,18.61151525,-99999.0,'11111222,11111222,99999999' 
TABS,ioos:station:wmo:42051:1,1998-09-03T22:00:00Z,29.6350,-93.6417,2.0,252.3653695,17.19814525,-99999.0,'11111222,11111222,99999999' 
TABS,ioos:station:wmo:42051:1,1998-09-03T22:30:00Z,29.6350,-93.6417,2.0,245.1269982,15.59666952,-99999.0,'11111222,11111222,99999999' 
TABS,ioos:station:wmo:42051:1,1998-09-03T23:00:00Z,29.6350,-93.6417,2.0,232.7122674,11.80231333,-99999.0,'11111222,11111222,99999999' 
TABS,ioos:station:wmo:42051:1,1998-09-03T23:30:00Z,29.6350,-93.6417,2.0,223.9874991,12.00854696,-99999.0,'11111222,11111222,99999999' 
TABS,ioos:station:wmo:42051:1,1998-09-04T00:00:00Z,29.6350,-93.6417,2.0,241.158732,8.333690659,-99999.0,'11133222,11111222,99999999' 
TABS,ioos:station:wmo:42051:1,1998-09-04T00:30:00Z,29.6350,-93.6417,2.0,245.237005,6.398320092,-99999.0,'11133222,11111222,99999999' 
TABS,ioos:station:wmo:42051:1,1998-09-04T01:00:00Z,29.6350,-93.6417,2.0,244.9433024,5.265529413,-99999.0,'11133222,11111222,99999999' 
TABS,ioos:station:wmo:42051:1,1998-09-04T01:30:00Z,29.6350,-93.6417,2.0,265.8846796,4.18077744,-99999.0,'11133222,11111222,99999999' 
TABS,ioos:station:wmo:42051:1,1998-09-04T02:00:00Z,29.6350,-93.6417,2.0,270.0004209,3.43,-99999.0,'11133222,11111222,99999999' 
TABS,ioos:station:wmo:42051:1,1998-09-04T02:30:00Z,29.6350,-93.6417,2.0,272.2200713,3.872905886,-99999.0,'11133222,11111222,99999999' 
TABS,ioos:station:wmo:42051:1,1998-09-04T03:00:00Z,29.6350,-93.6417,2.0,290.337435,4.287248535,-99999.0,'11133222,11111222,99999999' 
TABS,ioos:station:wmo:42051:1,1998-09-04T03:30:00Z,29.6350,-93.6417,2.0,283.9612922,3.688970046,-99999.0,'11133222,11111222,99999999' 
TABS,ioos:station:wmo:42051:1,1998-09-04T04:00:00Z,29.6350,-93.6417,2.0,273.3934241,2.53444274,-99999.0,'11133222,11111222,99999999' 
TABS,ioos:station:wmo:42051:1,1998-09-04T04:30:00Z,29.6350,-93.6417,2.0,240.2350578,3.605689948,-99999.0,'11133222,11111222,99999999' 
TABS,ioos:station:wmo:42051:1,1998-09-04T05:00:00Z,29.6350,-93.6417,2.0,233.1105538,5.964000335,-99999.0,'11133222,11111222,99999999' 
TABS,ioos:station:wmo:42051:1,1998-09-04T05:30:00Z,29.6350,-93.6417,2.0,235.9201832,6.121258041,-99999.0,'11133222,11111222,99999999' 
TABS,ioos:station:wmo:42051:1,1998-09-04T06:00:00Z,29.6350,-93.6417,2.0,244.9920939,7.404120474,-99999.0,'11133222,11111222,99999999' 
TABS,ioos:station:wmo:42051:1,1998-09-04T06:30:00Z,29.6350,-93.6417,2.0,240.0790778,6.876518014,-99999.0,'11133222,11111222,99999999' 
TABS,ioos:station:wmo:42051:1,1998-09-04T07:00:00Z,29.6350,-93.6417,2.0,241.6871293,6.599469676,-99999.0,'11133222,11111222,99999999' 
TABS,ioos:station:wmo:42051:1,1998-09-04T07:30:00Z,29.6350,-93.6417,2.0,218.8405357,5.931509083,-99999.0,'11133222,11111222,99999999' 
TABS,ioos:station:wmo:42051:1,1998-09-04T08:00:00Z,29.6350,-93.6417,2.0,219.7674237,5.815436355,-99999.0,'11133222,11111222,99999999' 
TABS,ioos:station:wmo:42051:1,1998-09-04T08:30:00Z,29.6350,-93.6417,2.0,218.1877725,6.25965654,-99999.0,'11133222,11111222,99999999' 
TABS,ioos:station:wmo:42051:1,1998-09-04T09:00:00Z,29.6350,-93.6417,2.0,212.46337,5.831234861,-99999.0,'11133222,11111222,99999999' 
TABS,ioos:station:wmo:42051:1,1998-09-04T09:30:00Z,29.6350,-93.6417,2.0,204.5513078,5.727870459,-99999.0,'11133222,11111222,99999999' 
TABS,ioos:station:wmo:42051:1,1998-09-04T10:00:00Z,29.6350,-93.6417,2.0,198.7746472,6.928672311,-99999.0,'11133222,11111222,99999999' 
TABS,ioos:station:wmo:42051:1,1998-09-04T10:30:00Z,29.6350,-93.6417,2.0,202.2215488,7.086324858,-99999.0,'11133222,11111222,99999999' 
TABS,ioos:station:wmo:42051:1,1998-09-04T11:00:00Z,29.6350,-93.6417,2.0,200.6586513,7.171122646,-99999.0,'11133222,11111222,99999999' 
TABS,ioos:station:wmo:42051:1,1998-09-04T11:30:00Z,29.6350,-93.6417,2.0,205.6277083,7.930157628,-99999.0,'11133222,11111222,99999999' 
TABS,ioos:station:wmo:42051:1,1998-09-04T12:00:00Z,29.6350,-93.6417,2.0,215.6677707,7.151573253,-99999.0,'11133222,11111222,99999999' 
TABS,ioos:station:wmo:42051:1,1998-09-04T12:30:00Z,29.6350,-93.6417,2.0,225.6944237,8.747553944,-99999.0,'11133222,11111222,99999999' 
TABS,ioos:station:wmo:42051:1,1998-09-04T13:00:00Z,29.6350,-93.6417,2.0,218.1036162,9.658240005,-99999.0,'11133222,11111222,99999999' 
TABS,ioos:station:wmo:42051:1,1998-09-04T13:30:00Z,29.6350,-93.6417,2.0,214.3848922,10.28767223,-99999.0,'11111222,11111222,99999999' 
TABS,ioos:station:wmo:42051:1,1998-09-04T14:00:00Z,29.6350,-93.6417,2.0,212.2029985,9.513537723,-99999.0,'11133222,11111222,99999999' 
TABS,ioos:station:wmo:42051:1,1998-09-04T14:30:00Z,29.6350,-93.6417,2.0,220.6066464,10.98535844,-99999.0,'11111222,11111222,99999999' 
TABS,ioos:station:wmo:42051:1,1998-09-04T15:00:00Z,29.6350,-93.6417,2.0,236.947916,11.2028657,-99999.0,'11111222,11111222,99999999' 
TABS,ioos:station:wmo:42051:1,1998-09-04T15:30:00Z,29.6350,-93.6417,2.0,244.0944392,11.26158515,-99999.0,'11111222,11111222,99999999' 
TABS,ioos:station:wmo:42051:1,1998-09-04T16:00:00Z,29.6350,-93.6417,2.0,243.7726135,12.12864378,-99999.0,'11111222,11111222,99999999' 